• In Deutschland
  • Länderverzeichnis
  • Für 7 Tage
  • Wassertemperatur
  • Satellitenkarten
  • Wetterkarte
  • Widgets
  • user-avatar
    Anmelden

    Stündliche Wetter Quito

    Heute, 24 September, Sonntag

    Zeit Temperatur Niederschläge Wind Luftdruck Luftfeuchtigkeit
    00:00 +18°C° 0 mm 0 m/S 623 mmHg 32%
    01:00 +20°C° 0 mm 1 m/S 623 mmHg 33%
    02:00 +17°C° 0 mm 0 m/S 623 mmHg 36%
    03:00 +16°C° 0 mm 0 m/S 623 mmHg 39%
    04:00 +16°C° 0 mm 0 m/S 622 mmHg 42%
    05:00 +17°C° 0 mm 0 m/S 623 mmHg 41%
    06:00 +18°C° 0 mm 0 m/S 624 mmHg 40%
    07:00 +20°C° 0 mm 0 m/S 625 mmHg 40%
    08:00 +25°C° 0 mm 1 m/S 625 mmHg 33%
    09:00 +28°C° 0 mm 2 m/S 626 mmHg 27%
    10:00 +31°C° 0 mm 3 m/S 627 mmHg 20%
    11:00 +33°C° 0 mm 3 m/S 627 mmHg 18%
    12:00 +34°C° 0 mm 3 m/S 626 mmHg 16%
    13:00 +35°C° 0 mm 3 m/S 626 mmHg 15%
    14:00 +35°C° 0 mm 3 m/S 625 mmHg 14%
    15:00 +35°C° 0 mm 3 m/S 625 mmHg 13%
    16:00 +35°C° 0 mm 2 m/S 624 mmHg 13%
    17:00 +31°C° 0 mm 2 m/S 623 mmHg 16%
    18:00 +28°C° 0 mm 1 m/S 623 mmHg 19%
    19:00 +23°C° 0 mm 0 m/S 622 mmHg 21%
    20:00 +25°C° 0 mm 1 m/S 622 mmHg 24%
    21:00 +24°C° 0 mm 1 m/S 623 mmHg 26%
    22:00 +23°C° 0 mm 2 m/S 623 mmHg 28%
    23:00 +23°C° 0 mm 2 m/S 623 mmHg 39%

    Morgen, 25 September, Montag

    Zeit Temperatur Niederschläge Wind Luftdruck Luftfeuchtigkeit
    00:00 +21°C° 0 mm 2 m/S 623 mmHg 49%
    01:00 +20°C° 0 mm 2 m/S 622 mmHg 60%
    02:00 +19°C° 0 mm 2 m/S 622 mmHg 65%
    03:00 +18°C° 0 mm 2 m/S 621 mmHg 70%
    04:00 +18°C° 0 mm 2 m/S 621 mmHg 74%
    05:00 +19°C° 0 mm 2 m/S 622 mmHg 69%
    06:00 +20°C° 0 mm 2 m/S 622 mmHg 63%
    07:00 +21°C° 0 mm 2 m/S 623 mmHg 57%
    08:00 +27°C° 0 mm 1 m/S 624 mmHg 45%
    09:00 +31°C° 0 mm 1 m/S 626 mmHg 33%
    10:00 +33°C° 0 mm 0 m/S 627 mmHg 21%
    11:00 +35°C° 0 mm 1 m/S 626 mmHg 20%
    12:00 +34°C° 0 mm 1 m/S 625 mmHg 18%
    13:00 +34°C° 0 mm 1 m/S 624 mmHg 17%
    14:00 +33°C° 0 mm 1 m/S 623 mmHg 18%
    15:00 +32°C° 0 mm 1 m/S 622 mmHg 19%
    16:00 +32°C° 0 mm 1 m/S 622 mmHg 20%
    17:00 +29°C° 0 mm 1 m/S 621 mmHg 23%
    18:00 +27°C° 0 mm 1 m/S 621 mmHg 27%
    19:00 +25°C° 0 mm 2 m/S 621 mmHg 30%
    20:00 +24°C° 0 mm 2 m/S 621 mmHg 34%
    21:00 +23°C° 0 mm 2 m/S 621 mmHg 38%
    22:00 +21°C° 0 mm 2 m/S 622 mmHg 41%
    23:00 +21°C° 0 mm 2 m/S 621 mmHg 49%

    übermorgen, 26 September, Dienstag

    Zeit Temperatur Niederschläge Wind Luftdruck Luftfeuchtigkeit
    00:00 +20°C° 0 mm 2 m/S 621 mmHg 57%
    01:00 +19°C° 0 mm 2 m/S 621 mmHg 65%
    02:00 +18°C° 0 mm 2 m/S 620 mmHg 68%
    03:00 +18°C° 0 mm 2 m/S 620 mmHg 72%
    04:00 +17°C° 0 mm 2 m/S 620 mmHg 75%
    05:00 +18°C° 0 mm 2 m/S 621 mmHg 71%
    06:00 +19°C° 0 mm 2 m/S 621 mmHg 67%
    07:00 +20°C° 0 mm 2 m/S 622 mmHg 63%
    08:00 +25°C° 0 mm 2 m/S 623 mmHg 50%
    09:00 +28°C° 0 mm 2 m/S 624 mmHg 37%
    10:00 +31°C° 0 mm 2 m/S 625 mmHg 24%
    11:00 +34°C° 0 mm 2 m/S 625 mmHg 22%
    12:00 +35°C° 0 mm 1 m/S 624 mmHg 19%
    13:00 +37°C° 0 mm 1 m/S 624 mmHg 16%
    14:00 +35°C° 0 mm 1 m/S 623 mmHg 18%
    15:00 +33°C° 0 mm 1 m/S 622 mmHg 20%
    16:00 +32°C° 0 mm 2 m/S 621 mmHg 21%
    17:00 +30°C° 0 mm 2 m/S 621 mmHg 26%
    18:00 +28°C° 0 mm 2 m/S 621 mmHg 30%
    19:00 +26°C° 0 mm 2 m/S 621 mmHg 35%
    20:00 +25°C° 0 mm 2 m/S 621 mmHg 38%
    21:00 +22°C° 0 mm 3 m/S 621 mmHg 42%
    22:00 +21°C° 0 mm 3 m/S 621 mmHg 45%
    23:00 +21°C° 0 mm 2 m/S 621 mmHg 50%

    27 September, Mittwoch

    Zeit Temperatur Niederschläge Wind Luftdruck Luftfeuchtigkeit
    00:00 +20°C° 0 mm 2 m/S 621 mmHg 56%
    01:00 +19°C° 0 mm 2 m/S 620 mmHg 61%
    02:00 +19°C° 0 mm 2 m/S 620 mmHg 64%
    03:00 +19°C° 0 mm 1 m/S 620 mmHg 66%
    04:00 +19°C° 0 mm 1 m/S 620 mmHg 69%
    05:00 +20°C° 0 mm 1 m/S 621 mmHg 64%
    06:00 +20°C° 0 mm 2 m/S 622 mmHg 60%
    07:00 +21°C° 0 mm 2 m/S 623 mmHg 55%
    08:00 +26°C° 0 mm 2 m/S 624 mmHg 44%
    09:00 +29°C° 0 mm 2 m/S 625 mmHg 33%
    10:00 +32°C° 0 mm 2 m/S 626 mmHg 22%
    11:00 +32°C° 0 mm 2 m/S 625 mmHg 22%
    12:00 +32°C° 0 mm 2 m/S 624 mmHg 23%
    13:00 +34°C° 0 mm 2 m/S 623 mmHg 23%
    14:00 +32°C° 0 mm 2 m/S 623 mmHg 24%
    15:00 +31°C° 0 mm 2 m/S 622 mmHg 26%
    16:00 +31°C° 0 mm 2 m/S 622 mmHg 27%
    17:00 +28°C° 0,1 mm 2 m/S 622 mmHg 32%
    18:00 +26°C° 0,1 mm 2 m/S 622 mmHg 38%
    19:00 +24°C° 0,1 mm 2 m/S 622 mmHg 43%
    20:00 +23°C° 0 mm 2 m/S 622 mmHg 46%
    21:00 +23°C° 0 mm 2 m/S 622 mmHg 50%
    22:00 +22°C° 0 mm 1 m/S 622 mmHg 53%
    23:00 +21°C° 0 mm 1 m/S 622 mmHg 56%

    28 September, Donnerstag

    Zeit Temperatur Niederschläge Wind Luftdruck Luftfeuchtigkeit
    00:00 +20°C° 0 mm 1 m/S 622 mmHg 59%
    01:00 +20°C° 0 mm 1 m/S 621 mmHg 62%
    02:00 +18°C° 0,1 mm 2 m/S 621 mmHg 64%
    03:00 +18°C° 0,1 mm 2 m/S 621 mmHg 66%
    04:00 +17°C° 0,1 mm 2 m/S 621 mmHg 69%
    05:00 +19°C° 0,2 mm 1 m/S 622 mmHg 66%
    06:00 +20°C° 0,2 mm 1 m/S 623 mmHg 63%
    07:00 +19°C° 0,2 mm 0 m/S 624 mmHg 61%
    08:00 +24°C° 0 mm 1 m/S 625 mmHg 50%
    09:00 +28°C° 0 mm 1 m/S 625 mmHg 39%
    10:00 +31°C° 0 mm 1 m/S 626 mmHg 28%
    11:00 +32°C° 0 mm 1 m/S 626 mmHg 25%
    12:00 +33°C° 0 mm 1 m/S 625 mmHg 23%
    13:00 +34°C° 0 mm 1 m/S 625 mmHg 20%
    14:00 +34°C° 0 mm 2 m/S 624 mmHg 23%
    15:00 +32°C° 0 mm 2 m/S 624 mmHg 25%
    16:00 +30°C° 0 mm 2 m/S 623 mmHg 27%
    17:00 +28°C° 0,3 mm 2 m/S 623 mmHg 35%
    18:00 +26°C° 0,3 mm 2 m/S 623 mmHg 43%
    19:00 +24°C° 0,3 mm 2 m/S 623 mmHg 51%
    20:00 +23°C° 0,5 mm 2 m/S 623 mmHg 57%
    21:00 +21°C° 0,5 mm 2 m/S 623 mmHg 63%
    22:00 +20°C° 0,5 mm 2 m/S 623 mmHg 69%
    23:00 +19°C° 0,2 mm 2 m/S 622 mmHg 71%

    29 September, Freitag

    Zeit Temperatur Niederschläge Wind Luftdruck Luftfeuchtigkeit
    00:00 +19°C° 0,2 mm 2 m/S 622 mmHg 73%
    01:00 +19°C° 0,2 mm 1 m/S 622 mmHg 75%
    02:00 +19°C° 0 mm 1 m/S 621 mmHg 77%
    03:00 +18°C° 0 mm 1 m/S 621 mmHg 78%
    04:00 +18°C° 0 mm 1 m/S 621 mmHg 80%
    05:00 +19°C° 0 mm 1 m/S 622 mmHg 75%
    06:00 +20°C° 0 mm 1 m/S 623 mmHg 70%
    07:00 +21°C° 0 mm 1 m/S 623 mmHg 65%
    08:00 +25°C° 0 mm 1 m/S 624 mmHg 53%
    09:00 +29°C° 0 mm 1 m/S 625 mmHg 41%
    10:00 +33°C° 0 mm 1 m/S 627 mmHg 29%
    11:00 +32°C° 0 mm 1 m/S 626 mmHg 27%
    12:00 +32°C° 0 mm 2 m/S 625 mmHg 26%
    13:00 +31°C° 0 mm 2 m/S 624 mmHg 25%
    14:00 +30°C° 0 mm 2 m/S 623 mmHg 27%
    15:00 +29°C° 0 mm 2 m/S 623 mmHg 30%
    16:00 +28°C° 0 mm 2 m/S 623 mmHg 32%
    17:00 +27°C° 0,1 mm 2 m/S 623 mmHg 38%
    18:00 +25°C° 0,1 mm 2 m/S 623 mmHg 45%
    19:00 +23°C° 0,1 mm 1 m/S 622 mmHg 51%
    20:00 +22°C° 0,9 mm 1 m/S 622 mmHg 57%
    21:00 +21°C° 0,9 mm 1 m/S 622 mmHg 62%
    22:00 +21°C° 0,9 mm 1 m/S 623 mmHg 68%
    23:00 +20°C° 0,5 mm 1 m/S 622 mmHg 71%
    Mehr zeigen